Flag for U.S.A. Weather past 2 weeks in Denver, Colorado, U.S.A.

Now
42 °F

Passing clouds.


Feels Like: 38 °F
Forecast: 42 / 63 °F
Wind: 6 mph from Southwest

Location: Buckley Air Force Base

Current Time: May 23, 2015 at 11:50:26 PM

Latest Report: May 23, 2015 at 10:58 PM


Visibility: 10 mi

Pressure: 29.87 "Hg

Humidity: 99%

Dew point: 42 °F

Location of DenverLocation

Historic Weather in Denver — Graph

°F

Denver temperature yesterday

Maximum temperature yesterday: 59 °F (at 3:58 PM)
Minimum temperature yesterday: 45 °F (at 3:58 AM)
Average temperature yesterday: 50 °F

Past Weeks' High & Low Weather Summary

 TemperatureHumidityPressure
High72 °F (May 14, 2:58 PM)100% (May 8, 10:58 PM)30.31 "Hg (May 8, 10:58 PM)
Low26 °F (May 10, 1:58 AM)22% (May 14, 1:58 PM)29.54 "Hg (May 15, 3:58 PM)
Average48 °F78%29.94 "Hg
* Reported May 8 9:58 PM — May 23 9:58 PM, Denver, Weather by CustomWeather, © 2015

Note: Actual official high and low records may vary slightly from our data, if they occured in-between our weather recording intervals... More about our weather records

Advertising

Denver weather history for previous 24 hours

 ConditionsComfort  
Time TempWeatherWind HumidityBarometerVisibility
9:58 PM
Sat, May 23
42 °FPassing clouds.2 mph99%29.88 "Hg10 mi
8:58 PM45 °FBroken clouds.8 mph94%29.88 "Hg10 mi
7:58 PM50 °FThunderstorms. Partly sunny.8 mph90%29.86 "Hg10 mi
6:58 PM54 °FScattered clouds.6 mph68%29.78 "Hg10 mi
5:58 PM55 °FBroken clouds.10 mph70%29.78 "Hg10 mi
4:58 PM49 °FBroken clouds.18 mph93%29.77 "Hg10 mi
3:58 PM49 °FLight rain. Partly sunny.15 mph81%29.88 "Hg4 mi
2:58 PM55 °FBroken clouds.9 mph59%29.82 "Hg10 mi
1:58 PM61 °FBroken clouds.13 mph47%29.80 "Hg10 mi
12:58 PM52 °FThunderstorms. Broken clouds.10 mph94%29.84 "Hg6 mi
11:58 AM60 °FBroken clouds.6 mph63%29.84 "Hg10 mi
10:58 AM56 °FBroken clouds.3 mph70%29.88 "Hg10 mi
9:58 AM52 °FCloudy.No wind84%29.93 "Hg10 mi
8:58 AM51 °FCloudy.2 mph85%29.93 "Hg10 mi
7:58 AM49 °FMore clouds than sun.1 mph87%29.93 "Hg7 mi
6:58 AM48 °FBroken clouds.1 mph95%29.95 "Hg7 mi
5:58 AM46 °FPassing clouds.No wind99%29.92 "Hg10 mi
4:58 AM45 °FPassing clouds.2 mph100%29.91 "Hg10 mi
3:58 AM45 °FPartly cloudy.2 mph100%29.91 "Hg7 mi
2:58 AM44 °FOvercast.2 mph100%29.93 "Hg10 mi
1:58 AM46 °FPartly cloudy.No wind99%29.94 "Hg10 mi
12:58 AM47 °FMostly cloudy.2 mph100%29.96 "Hg10 mi
11:58 PM
Fri, May 22
47 °FPassing clouds.1 mph100%29.97 "Hg10 mi
Weather by CustomWeather, © 2015

See weather overviewHow to use our weather pages